World > North America > United States > Texas

Loebau, Texas Regional Weather

Lat: 30.29N, Lon: 96.91W
Wx Zone: TXZ194Web Search

Ads allow us to feed your daily addiction for the world's greatest weather information. We're determined to offer quality sponsors, in the least annoying way possible.

Feedback


°F Click to change Loebau hourly weather to Imperial units.Click to change Loebau hourly weather to Metric units. °C
Loebau Weather Map
UTC Time: 4/13/2021, 04:20
Your Time:

Loebau, TX Regional Weather

Expires:202104130500;;469199
ASUS44 KSJT 130415
RWRSJT
WEST CENTRAL TEXAS REGIONAL WEATHER ROUNDUP
NATIONAL WEATHER SERVICE SAN ANGELO TX
1100 PM CDT MON APR 12 2021

NOTE: "FAIR" INDICATES FEW OR NO CLOUDS BELOW 12,000 FEET WITH NO
SIGNIFICANT WEATHER AND/OR OBSTRUCTIONS TO VISIBILITY.


TXZ145-158-159-173-191-192-194-205-207-220-223-130500-
CENTRAL AND SOUTH CENTRAL TEXAS
  
CITY           SKY/WX    TMP DP  RH WIND       PRES   REMARKS
AUSTIN/BERGSTM MOCLDY    71  65  81 SE6       29.85R                  
WACO           MOCLDY    73  64  73 E5        29.86S                  
HILLSBORO      PTCLDY    69  67  95 CALM      29.87F                  
TEMPLE         CLOUDY    75  65  70 S10       29.88R                  
KILLEEN-GRAY   CLOUDY    73  64  73 SE9       29.86R                  
FORT HOOD      CLOUDY    75  65  71 SE12      29.86R                  
GEORGETOWN     PTCLDY    75  66  73 SE7       29.87R                  
LAGO VISTA     FAIR      71  63  73 SE6       29.88R                  
SAN MARCOS     MOCLDY    74  68  81 SE8       29.87R                  
NEW BRAUNFELS  PTCLDY    75  66  73 SE13      29.85R                  
RANDOLPH AFB   PTCLDY    74  66  76 SE8       29.85R                  
SAN ANTONIO    MOCLDY    75  65  70 E10       29.86R                  
STINSON        PTCLDY    77  67  71 E7        29.84R                  
PLEASANTON     NOT AVBL                                               
LA GRANGE      CLOUDY    76  70  81 SE5       29.85R                  
GIDDINGS       MOCLDY    75  67  75 SE9G16    29.88S                  
$$


SKY/WX - Weather  TMP - Temperature  DP - Dew Point  RH - Relative Humidity
WIND - Wind Direction/Speed PRES - Barometric Pressure VSB - Visibility
WCI - Wind Chill Index E13G22 Wind - East Wind 13 mph/Gusts of 22 mph